Regional Weather Roundup
Issued by NWS

Home | Current Version | Previous Version | Graphics & Text | Print | Product List | Glossary Off
Versions: 1 2 3 4 5 6 7 8 9 10 11 12 13 14 15 16 17 18 19 20 21 22 23 24 25 26 27 28 29 30 31 32 33 34 35 36 37 38 39 40 41 42 43 44 45 46 47 48 49 50

000
ASUS45 KCYS 220010
RWRWY

WYOMING REGIONAL WEATHER ROUNDUP
NATIONAL WEATHER SERVICE CHEYENNE WY
500 PM MST SAT JAN 21 2017

NOTE:  "FAIR" INDICATES FEW OR NO CLOUDS BELOW 12,000 FEET
WITH NO SIGNIFICANT WEATHER AND/OR OBSTRUCTIONS TO VISIBILITY.

WYZ001-220100-
YELLOWSTONE NATIONAL PARK

CITY           SKY/WX    TMP DP  RH WIND       PRES   REMARKS
LK YELLOWSTONE   N/A     23  19  85 VRB3      29.57R
6HR MIN TEMP:  16; 6HR MAX TEMP:  24;

W YELLOWSTONE  NOT AVBL

$$
WYZ002>013-054>058-071-098>099-220100-
NORTHERN WYOMING

CITY           SKY/WX    TMP DP  RH WIND       PRES   REMARKS
JACKSON        PTCLDY    19  18  93 CALM      29.60R
CODY           CLOUDY    23  16  74 NW3       29.54R
GREYBULL       FAIR      11   7  84 NW5       29.56R WCI   3
6HR MIN TEMP:  10; 6HR MAX TEMP:  16;

WORLAND        FAIR      17  13  84 NE6       29.53R WCI   9
6HR MIN TEMP:  11; 6HR MAX TEMP:  24; 6HR PCP: TRACE;

SHERIDAN       FAIR      26  20  77 S5        29.52R WCI  20
6HR MIN TEMP:  26; 6HR MAX TEMP:  34;

BUFFALO        FAIR      31  22  69 N7        29.51R WCI  24
6HR MIN TEMP:  31; 6HR MAX TEMP:  35;

GILLETTE       FAIR      33  27  78 CALM      29.50R
6HR MIN TEMP:  33; 6HR MAX TEMP:  39;

HULETT         FAIR      32  28  86 MISG      29.51R
NEWCASTLE      FAIR      27  27 100 N3        29.50R FOG

$$
WYZ014>020-022>026-101>103-220100-
CENTRAL WYOMING

CITY           SKY/WX    TMP DP  RH WIND       PRES   REMARKS
BIG PINEY      MOCLDY    19  14  81 CALM      29.59R
6HR MIN TEMP:  15; 6HR MAX TEMP:  21;

PINEDALE       CLOUDY    18  12  79 CALM      29.59R
DUBOIS         NOT AVBL
LANDER         CLOUDY    21  15  78 CALM      29.52R
6HR MIN TEMP:  18; 6HR MAX TEMP:  23;

RIVERTON       FAIR     N/A N/A N/A CALM      29.54R HAZE
                                      6HR PCP: TRACE;

CASPER         FAIR      31  22  69 W7        29.50R WCI  24
6HR MIN TEMP:  31; 6HR MAX TEMP:  36;

DOUGLAS        FAIR      35  23  61 NW5       29.49R WCI  31
6HR MIN TEMP:  31; 6HR MAX TEMP:  42;


$$
WYZ021-027>030-104>119-220100-
SOUTHERN WYOMING

CITY           SKY/WX    TMP DP  RH WIND       PRES   REMARKS
EVANSTON       CLOUDY    24  19  81 W15       29.66R WCI  11
6HR MIN TEMP:  18; 6HR MAX TEMP:  25; 6HR PCP: TRACE;

ROCK SPRINGS   LGT SNOW  21  18  88 SW7       29.60R FOG     WCI  12
6HR MIN TEMP:  14; 6HR MAX TEMP:  21; 6HR PCP: TRACE;

RAWLINS        MOCLDY    25  18  74 W12       29.53R WCI  14
6HR MIN TEMP:  22; 6HR MAX TEMP:  31;

LARAMIE        CLOUDY    25  18  74 N7        29.48R WCI  17
6HR MIN TEMP:  18; 6HR MAX TEMP:  29;

CHEYENNE       FAIR      34  21  59 SE6       29.47R WCI  29
6HR MIN TEMP:  34; 6HR MAX TEMP:  41;

TORRINGTON     FAIR      39  23  52 CALM      29.48R
6HR MIN TEMP:  33; 6HR MAX TEMP:  45;


$$



USA.gov is the U.S. government's official web portal to all federal, state and local government web resources and services.